Greenville, AL

7:05 AM CST on February 24, 2017 (GMT -0600)
Greenville Municipal

Weather History for KPRN - January, 2013

Change the Weather History Date:

Sunday, January 13, 2013

  Actual Average Record
Temperature  
Mean Temperature 70 °F -  
Max Temperature 75 °F 54 °F 79 °F (1960)
Min Temperature 64 °F 35 °F 12 °F (1962)
Cooling Degree Days 4    
Growing Degree Days 20 (Base 50)    
Moisture  
Dew Point 65 °F    
Average Humidity 88    
Maximum Humidity 94    
Minimum Humidity 67    
Precipitation  
Precipitation 0.32 in - - ()
Sea Level Pressure  
Sea Level Pressure 30.00 in    
Wind  
Wind Speed 7 mph (SSE)    
Max Wind Speed 13 mph    
Max Gust Speed 20 mph    
Visibility 9 miles    
Events Rain    
Averages and records for this station are not official NWS values.
T = Trace of Precipitation, MM = Missing Value Source: NWS Daily Summary

Daily Weather History Graph

Daily Weather History Graph

Search for Another Location

Airport or City:

Trip Planner

Search our weather history database for the weather conditions in past years. The results will help you decide how hot, cold, wet, or windy it might be!

Date:

Astronomy

Jan. 13, 2013 Rise Set
Actual Time 6:47 AM CST 5:03 PM CST
Civil Twilight 6:20 AM CST 5:30 PM CST
Nautical Twilight 5:50 AM CST 6:00 PM CST
Astronomical Twilight 5:21 AM CST 6:29 PM CST
Moon 7:55 AM CST (1/13) 7:29 PM CST (1/13)
Length of Visible Light 11h 09m
Length of Day
10h 16m
Waxing Crescent, 5% of the Moon is Illuminated
Jan 13
Waxing Crescent
Jan 18
First Quarter
Jan 26
Full
Feb 3
Last Quarter
Feb 10
New

Hourly Weather History & Observations

Time (CST) Temp. Dew Point Humidity Pressure Visibility Wind Dir Wind Speed Gust Speed Precip Events Conditions
12:06 AM 64.4 °F 62.6 °F 94% 30.02 in 9.0 mi SE 4.6 mph - N/A   Overcast
12:36 AM 64.4 °F 62.6 °F 94% 30.01 in 9.0 mi SE 5.8 mph - N/A   Overcast
12:56 AM 64.9 °F 63.0 °F 93% 30.00 in 10.0 mi SSE 5.8 mph - N/A   Overcast
1:18 AM 64.4 °F 62.6 °F 94% 30.01 in 10.0 mi SE 4.6 mph - N/A   Overcast
1:56 AM 64.9 °F 63.0 °F 93% 29.98 in 9.0 mi SE 6.9 mph - N/A   Overcast
2:56 AM 66.0 °F 64.0 °F 93% 29.98 in 10.0 mi SSE 6.9 mph - N/A   Overcast
3:06 AM 66.2 °F 64.4 °F 94% 29.99 in 10.0 mi SSE 8.1 mph - N/A   Overcast
3:09 AM 66.2 °F 64.4 °F 94% 29.98 in 10.0 mi SSE 5.8 mph - N/A   Overcast
3:56 AM 66.0 °F 64.0 °F 93% 29.97 in 10.0 mi South 6.9 mph - N/A   Overcast
4:56 AM 66.9 °F 64.0 °F 90% 29.98 in 10.0 mi SSE 5.8 mph - N/A   Overcast
5:36 AM 66.2 °F 64.4 °F 94% 29.99 in 10.0 mi SSE 6.9 mph - N/A   Overcast
5:56 AM 66.9 °F 64.0 °F 90% 29.99 in 10.0 mi SSE 4.6 mph - N/A   Overcast
6:25 AM 66.2 °F 64.4 °F 94% 30.01 in 10.0 mi SSE 6.9 mph - N/A   Overcast
6:46 AM 66.2 °F 64.4 °F 94% 29.99 in 10.0 mi SSE 9.2 mph - N/A   Overcast
6:53 AM 66.2 °F 64.4 °F 94% 30.00 in 10.0 mi SSE 8.1 mph - N/A   Overcast
6:56 AM 66.9 °F 64.0 °F 90% 29.99 in 10.0 mi SSE 6.9 mph - N/A   Overcast
7:04 AM 66.2 °F 64.4 °F 94% 29.99 in 10.0 mi SSE 8.1 mph - N/A   Overcast
7:56 AM 68.0 °F 64.0 °F 87% 30.01 in 10.0 mi SSE 5.8 mph - N/A   Overcast
8:10 AM 68.0 °F 64.4 °F 88% 30.03 in 10.0 mi SSE 6.9 mph - N/A   Overcast
8:56 AM 69.1 °F 64.0 °F 84% 30.02 in 10.0 mi South 10.4 mph - N/A   Overcast
9:43 AM 71.6 °F 64.4 °F 78% 30.03 in 10.0 mi SE 11.5 mph 17.3 mph N/A   Overcast
9:56 AM 71.1 °F 64.0 °F 78% 30.02 in 10.0 mi SSE 8.1 mph - N/A   Overcast
10:56 AM 71.1 °F 64.9 °F 81% 30.02 in 10.0 mi South 6.9 mph - 0.00 in Rain Light Rain
11:56 AM 73.0 °F 64.9 °F 76% 29.99 in 10.0 mi South 6.9 mph - 0.00 in   Overcast
12:17 PM 75.2 °F 66.2 °F 73% 29.99 in 10.0 mi South 6.9 mph - N/A   Mostly Cloudy
12:56 PM 75.9 °F 64.0 °F 67% 29.97 in 10.0 mi South 12.7 mph 19.6 mph N/A   Mostly Cloudy
1:56 PM 75.0 °F 64.0 °F 69% 29.97 in 10.0 mi South 11.5 mph - N/A   Overcast
2:56 PM 75.0 °F 64.0 °F 69% 29.96 in 10.0 mi SSE 10.4 mph 18.4 mph N/A   Overcast
3:56 PM 73.0 °F 64.9 °F 76% 29.97 in 10.0 mi SSE 8.1 mph - 0.00 in   Overcast
4:56 PM 71.1 °F 66.0 °F 84% 29.99 in 10.0 mi South 6.9 mph - 0.00 in   Overcast
5:45 PM 69.8 °F 66.2 °F 88% 30.02 in 10.0 mi South 5.8 mph - 0.00 in   Overcast
5:54 PM 69.8 °F 66.2 °F 88% 30.02 in 10.0 mi South 6.9 mph - 0.00 in   Overcast
5:56 PM 70.0 °F 66.9 °F 90% 30.01 in 10.0 mi South 5.8 mph - 0.00 in   Overcast
6:07 PM 69.8 °F 66.2 °F 88% 30.02 in 10.0 mi South 6.9 mph - N/A   Overcast
6:41 PM 69.8 °F 66.2 °F 88% 30.02 in 2.5 mi South 8.1 mph - 0.07 in Rain Light Rain
6:56 PM 69.1 °F 66.9 °F 93% 30.02 in 2.5 mi South 3.5 mph - 0.16 in Rain Heavy Rain
7:13 PM 69.8 °F 66.2 °F 88% 30.01 in 3.0 mi SSE 5.8 mph - 0.11 in Rain Rain
7:51 PM 69.8 °F 66.2 °F 88% 30.01 in 9.0 mi South 8.1 mph - 0.13 in   Overcast
7:56 PM 69.1 °F 66.9 °F 93% 30.00 in 9.0 mi SSE 9.2 mph - 0.13 in   Overcast
8:56 PM 69.1 °F 66.9 °F 93% 30.01 in 10.0 mi South 6.9 mph - N/A   Overcast
9:56 PM 69.1 °F 66.9 °F 93% 30.02 in 9.0 mi South 8.1 mph - 0.00 in   Overcast
10:56 PM 69.1 °F 66.9 °F 93% 30.01 in 8.0 mi SSE 3.5 mph - 0.00 in   Overcast
11:56 PM 69.1 °F 66.9 °F 93% 29.99 in 7.0 mi SE 6.9 mph - 0.03 in Rain Light Rain